FW0460 Weather Reports


time (UTC)temp
C
wind
direction
speed
KPH
gust
KPH
rain 1hr
cm
rain 24hr
cm
rain mn
cm
humidity
%
barometer
mb
20260507231018 14 0.0 0.0 0.03 1.02 0.03 92 1015.1
20260507230035 14 0.0 0.0 0.03 1.02 0.03 92 1015.3
20260507225031 14 0.0 0.0 0.05 1.02 0.03 92 1015.2
20260507224028 14 283 1.6 8.0 0.05 1.02 0.03 92 1015.2
20260507223024 14 0.0 0.0 0.05 1.02 0.03 91 1015.2
20260507222020 14 0.0 0.0 0.10 1.02 0.03 91 1015.0
20260507221017 14 0.0 0.0 0.10 0.99 0.00 91 1015.0
20260507220034 14 0.0 0.0 0.13 0.99 0.99 91 1015.1
20260507215031 14 203 0.0 8.0 0.13 0.97 0.97 91 1015.1
20260507214027 15 199 0.0 3.2 0.18 0.97 0.97 91 1015.1
20260507213024 15 199 0.0 3.2 0.18 0.97 0.97 91 1015.1
20260507212041 15 0.0 0.0 0.18 0.94 0.94 91 1015.0
20260507211017 15 0.0 0.0 0.15 0.89 0.89 91 1015.1
20260507210034 15 0.0 0.0 0.15 0.86 0.86 91 1014.8
20260507205030 15 0.0 0.0 0.13 0.84 0.84 91 1014.8
20260507204027 15 0.0 0.0 0.05 0.79 0.79 91 1014.7
20260507203023 15 0.0 0.0 0.05 0.79 0.79 91 1014.8
20260507202020 15 0.0 0.0 0.03 0.76 0.76 91 1014.6
20260507201016 15 0.0 0.0 0.03 0.76 0.76 91 1014.5
20260507200053 15 0.0 0.0 0.00 0.71 0.71 91 1014.5
20260507195029 15 0.0 0.0 0.00 0.71 0.71 91 1014.5
20260507194025 15 0.0 0.0 0.00 0.71 0.71 91 1014.4
20260507193042 15 0.0 0.0 0.00 0.71 0.71 91 1014.4
20260507192039 15 0.0 0.0 0.03 0.71 0.71 91 1014.4
20260507191015 15 0.0 0.0 0.03 0.71 0.71 91 1014.4
20260507190032 15 0.0 0.0 0.03 0.71 0.71 91 1014.1
20260507185028 15 0.0 0.0 0.03 0.71 0.71 91 1014.1
20260507184025 15 0.0 0.0 0.03 0.71 0.71 91 1014.0
20260507183042 15 0.0 0.0 0.03 0.71 0.71 90 1013.9
20260507182018 15 187 0.0 3.2 0.00 0.69 0.69 90 1013.7
20260507181034 15 0.0 0.0 0.00 0.69 0.69 90 1013.6
20260507180051 15 0.0 0.0 0.00 0.69 0.69 90 1013.5
20260507175027 15 0.0 0.0 0.00 0.69 0.69 90 1013.4
20260507174024 15 0.0 3.2 0.00 0.69 0.69 90 1013.4
20260507173021 15 0.0 0.0 0.00 0.69 0.69 90 1013.4
20260507172017 15 0.0 0.0 0.00 0.69 0.69 90 1013.5
20260507171034 15 0.0 0.0 0.00 0.69 0.69 90 1013.6
20260507170030 15 0.0 0.0 0.00 0.69 0.69 90 1013.6
20260507165047 15 0.0 0.0 0.03 0.69 0.69 90 1013.5
20260507164023 15 0.0 0.0 0.05 0.69 0.69 90 1013.3
20260507163019 15 0.0 0.0 0.10 0.69 0.69 90 1013.4
20260507162036 15 0.0 3.2 0.15 0.69 0.69 89 1013.3
20260507161212 15 0.0 0.0 0.15 0.69 0.69 89 1013.4
20260507160029 15 156 0.0 3.2 0.18 0.69 0.69 89 1013.4
20260507155025 15 178 3.2 8.0 0.15 0.66 0.66 89 1013.6
20260507154022 15 195 3.2 8.0 0.13 0.64 0.64 89 1013.7
20260507153038 15 193 4.8 12.9 0.10 0.61 0.61 89 1013.7
20260507152055 15 183 8.0 20.9 0.03 0.53 0.53 88 1013.6
20260507151111 15 185 6.4 24.1 0.03 0.53 0.53 88 1013.7
20260507150028 15 179 6.4 16.1 0.00 0.51 0.51 88 1013.6
20260507145024 15 177 8.0 20.9 0.00 0.51 0.51 88 1013.7
20260507144020 15 186 6.4 20.9 0.00 0.51 0.51 88 1013.7
20260507143017 15 201 1.6 8.0 0.00 0.51 0.51 88 1013.7
20260507142033 15 162 1.6 8.0 0.03 0.51 0.51 88 1013.6
20260507141030 15 117 1.6 8.0 0.10 0.51 0.51 88 1013.7
20260507140026 15 130 3.2 12.9 0.13 0.51 0.51 88 1013.7
20260507135023 15 150 1.6 8.0 0.13 0.51 0.51 88 1013.8
20260507134019 15 175 1.6 8.0 0.13 0.51 0.51 88 1013.7
20260507133015 15 197 1.6 8.0 0.18 0.51 0.51 88 1013.9
20260507132032 15 202 6.4 16.1 0.18 0.48 0.48 88 1014.0
20260507131029 15 201 4.8 12.9 0.15 0.43 0.43 88 1013.9
20260507130105 15 188 3.2 8.0 0.36 0.38 0.38 87 1013.8
20260507125021 15 202 1.6 12.9 0.38 0.38 0.38 87 1013.8
20260507124018 15 206 4.8 12.9 0.38 0.38 0.38 87 1013.9
20260507123114 15 204 8.0 20.9 0.33 0.33 0.33 86 1013.8
20260507122031 15 193 11.3 24.1 0.30 0.30 0.30 85 1013.8
20260507121028 16 199 12.9 27.4 0.28 0.28 0.28 82 1013.7
20260507120024 18 203 12.9 32.2 0.03 0.03 0.03 73 1013.7
20260507115020 20 203 17.7 37.0 0.00 0.00 0.00 64 1013.2
20260507114016 21 203 14.5 32.2 0.00 0.00 0.00 64 1013.1
20260507113033 23 212 6.4 20.9 0.00 0.00 0.00 52 1013.0
20260507112029 23 211 9.7 20.9 0.00 0.00 0.00 50 1013.0
20260507111025 22 232 8.0 24.1 0.00 0.00 0.00 52 1013.0
20260507110022 23 225 8.0 24.1 0.00 0.00 0.00 49 1013.1
20260507105018 23 211 6.4 24.1 0.00 0.00 0.00 50 1013.2
20260507104035 23 220 8.0 20.9 0.00 0.00 0.00 52 1013.3
20260507103051 22 213 11.3 27.4 0.00 0.00 0.00 52 1013.3
20260507102027 23 217 11.3 24.1 0.00 0.00 0.00 52 1013.2
20260507101023 22 207 6.4 16.1 0.00 0.00 0.00 56 1013.3
20260507100020 22 227 8.0 20.9 0.00 0.00 0.00 58 1013.5
20260507095017 21 209 11.3 24.1 0.00 0.00 0.00 60 1013.6
20260507094113 21 199 8.0 24.1 0.00 0.00 0.00 64 1013.5
20260507093030 20 205 8.0 20.9 0.00 0.00 0.00 67 1013.7
20260507092026 20 264 6.4 16.1 0.00 0.00 0.00 66 1013.6
20260507091023 20 247 8.0 16.1 0.00 0.00 0.00 67 1013.5
20260507090019 19 206 6.4 16.1 0.00 0.00 0.00 69 1013.6
20260507085016 19 202 8.0 16.1 0.00 0.00 0.00 69 1013.4
20260507084033 20 208 4.8 16.1 0.00 0.00 0.00 68 1013.3
20260507083029 20 213 6.4 16.1 0.00 0.00 0.00 67 1013.2
20260507082026 20 201 4.8 16.1 0.00 0.00 0.00 67 1013.0
20260507081022 19 222 6.4 20.9 0.00 0.00 0.00 68 1013.1
20260507080018 20 207 9.7 24.1 0.00 0.00 0.00 68 1013.0
20260507075034 20 200 8.0 20.9 0.00 0.00 0.00 69 1013.0
20260507074031 19 196 8.0 24.1 0.00 0.00 0.00 71 1012.9
20260507073048 18 208 6.4 20.9 0.00 0.00 0.00 73 1012.8
20260507072024 18 199 8.0 20.9 0.00 0.00 0.00 74 1012.8
20260507071020 17 199 4.8 16.1 0.00 0.00 0.00 76 1012.7
20260507070017 17 208 6.4 12.9 0.00 0.00 0.00 76 1012.7
20260507065034 17 207 8.0 16.1 0.00 0.00 0.00 76 1012.8
20260507064030 17 211 4.8 16.1 0.00 0.00 0.00 76 1012.7
20260507063026 17 193 6.4 16.1 0.00 0.00 0.00 77 1012.9
20260507062023 17 193 6.4 16.1 0.00 0.00 0.00 76 1012.8
20260507061020 17 181 6.4 12.9 0.00 0.00 0.00 77 1012.7
20260507060036 17 169 3.2 12.9 0.00 0.00 0.00 78 1012.6
20260507055033 16 185 3.2 16.1 0.00 0.00 0.00 79 1012.6
20260507054029 16 153 3.2 8.0 0.00 0.00 0.00 80 1012.5
20260507053025 16 179 3.2 12.9 0.00 0.00 0.00 81 1012.4
20260507052022 16 202 0.0 3.2 0.00 0.00 0.00 82 1012.2
20260507051018 16 201 0.0 3.2 0.00 0.00 0.00 82 1012.1
20260507050035 15 172 0.0 3.2 0.00 0.00 0.00 83 1012.1
20260507045031 15 169 0.0 3.2 0.00 0.00 0.00 84 1012.0
20260507044028 15 114 0.0 3.2 0.00 0.00 0.00 84 1012.0
20260507043104 15 145 1.6 12.9 0.00 0.00 0.00 84 1011.9
20260507042101 15 179 0.0 3.2 0.00 0.00 0.00 84 1011.6
20260507041017 15 139 0.0 3.2 0.00 0.00 0.00 85 1011.4
20260507040033 14 149 0.0 3.2 0.00 0.00 0.00 85 1011.3
20260507035049 14 0.0 0.0 0.00 0.00 0.00 85 1011.3
20260507034046 14 0.0 0.0 0.00 0.00 0.00 85 1011.3
20260507033022 14 0.0 3.2 0.00 0.00 0.00 84 1011.2
20260507032018 14 117 0.0 3.2 0.00 0.00 0.00 84 1011.1
20260507031035 15 0.0 3.2 0.00 0.00 0.00 83 1011.1
20260507030031 15 205 0.0 3.2 0.00 0.00 0.00 83 1011.0
20260507025028 15 170 0.0 3.2 0.00 0.00 0.00 83 1011.2
20260507024024 15 171 0.0 3.2 0.00 0.00 0.00 80 1011.1
20260507023020 15 0.0 0.0 0.00 0.00 0.00 80 1011.0
20260507022017 15 0.0 0.0 0.00 0.00 0.00 79 1010.9
20260507021033 15 277 0.0 3.2 0.00 0.00 0.00 79 1010.8
20260507020049 15 307 0.0 3.2 0.00 0.00 0.00 79 1010.8
20260507015025 15 0.0 0.0 0.00 0.00 0.00 79 1010.9
20260507014022 15 0.0 3.2 0.00 0.00 0.00 79 1010.9
20260507013018 15 0.0 0.0 0.00 0.00 0.00 79 1011.0
20260507012035 15 0.0 0.0 0.00 0.00 0.00 78 1010.9
20260507011031 16 0.0 0.0 0.00 0.00 0.00 77 1010.9
20260507010027 16 0.0 0.0 0.00 0.00 0.00 77 1010.7
20260507005023 16 0.0 0.0 0.00 0.00 0.00 76 1010.5
20260507004019 16 0.0 0.0 0.00 0.00 0.00 76 1010.7
20260507003035 16 0.0 0.0 0.00 0.00 0.00 76 1010.8
20260507002032 16 250 0.0 3.2 0.00 0.00 0.00 75 1010.9
20260507001048 16 274 1.6 8.0 0.00 0.00 0.00 75 1010.8
20260507000024 16 250 0.0 3.2 0.00 0.00 0.00 75 1011.0
20260506235021 16 246 1.6 8.0 0.00 0.00 0.00 75 1011.2
20260506234017 16 235 0.0 8.0 0.00 0.00 0.00 75 1011.2
20260506233054 15 236 3.2 16.1 0.00 0.00 0.00 76 1011.2
20260506232030 14 198 1.6 8.0 0.00 0.00 0.00 76 1011.3